STARLINK-33728, 63715

Orbit data source: Space-Track

STARLINK-33728, 63715 is a payload satellite owned by SpaceX/Seattle (US) in LEO that was launched on Mon, 28 Apr 2025 UTC via an FALCON 9 launch vehicle from the Air Force Western Test Range (AFWTR). Payload-class satellites include a variety of spacecraft equipped with specific instruments for various scientific and technological missions. These include communications satellites like Starlink; space stations such as the ISS; scientific satellites like the Hubble; Earth observation satellites from companies like Planet Labs, Umbra, and HawkEye 360; GPS; miniature CubeSats for education and research; and military/defense satellites.

Loading next visibility...
Identifier
63715, 2025-087U
Orbit
LEO
Country
Flag of USUS
Related business
Manufacturer
SpaceX/Seattle
Mission
Operational Commercial Communications
Bus & Motor
STARLINK V2MO, Unknown motor
Mass
575 kg wet, ~530 kg dry
Launch date (UTC)
2025-04-28 (1 year ago)
Launch vehicle
FALCON 9
Launch site
Air Force Western Test Range (AFWTR)
Object type
Payload
Rocket body
Debris
Shape & HBR
Box + 2 Pan, 17.7 m
Radar Cross Section
36.964 m², Large (>1 m²)

Expand to show TLE details & history
Last TLE update: 1 day ago

TLE from 1 day ago
0 STARLINK-33728
1 63715U 25087U   26170.52954827  .00012199  00000-0  42326-3 0  9994
2 63715  53.1584 106.3815 0001302  93.1750 266.9399 15.30204693 64798
Epoch: 2026-06-19T12:42Z
TLE epoch observation values (Epoch: 2026-06-19T12:42:32.970Z)
Latitude
-0.00008°
Longitude
7.98685°
Altitude
476.148 km
Speed
7.629 km/s
True Right ascension
07h 05m 31s
True Declination
0° 00' 00"
Sunlit
Object was in daylight at epoch
Visualization orbit readout
Latitude
Unknown
Longitude
Unknown
Altitude
Unknown
Speed
Unknown
Apparent Right ascension
Unknown
Apparent Declination
Unknown
Sunlit
N/A
Visualization observer readout
Local Sidereal Time
08:42:53
Azimuth
Unknown
Elevation
Unknown
Doppler factor
Unknown
Orbital elements
Apogee altitude
476.35 km
Perigee altitude
474.565 km
Semi-major axis
6,853.595 km
Eccentricity
0.00013
Inclination
53.1584°
RAAN
106.3815°
Arg. of periapsis
93.175°
True anomaly
266.925°
Mean anomaly
266.9399°
Eccentric anomaly
266.93245°
Mean motion
3.8253 °/min
Orbital period
94.11 mins
BSTAR
0.00042326
Loading maneuver chart data...
Computing Atmospheric mass density...
Loading historical data...
Loading historical data...
Loading historical data...
Loading historical data...
Loading historical data...
Loading historical data...
Loading historical data...

Documentation

Showing up to 5 results
|